Theta_e
333 332 329 322 320 318 318 317 317 317 318 318 321 322 322 320 317 314 311 310 310 311 309 308 307 307 308 309 311 313 315 316 311 311 310 309 309 309 309 309 309 309 309
330 326 326 325 323 320 319 321 323 324 324 323 322 322 321 316 312 309 308 307 307 307 307 307 307 306 306 308 309 310 311 312 310 307 306 306 306 306 306 306 306 306 306
329 328 327 324 323 324 323 322 324 323 321 320 320 319 316 311 310 310 308 307 308 308 308 308 307 307 306 306 306 307 307 307 307 306 306 306 305 305 305 306 306 306 306
328 327 326 324 322 320 319 318 319 319 317 316 317 317 315 312 311 309 308 306 304 307 308 309 309 307 307 306 306 306 307 307 306 306 306 306 306 306 306 306 306 306 306
325 325 323 320 317 316 314 312 311 313 313 313 312 312 312 313 311 311 308 304 302 302 307 308 308 308 307 307 306 307 307 307 307 306 306 305 306 306 306 306 306 306 306
323 322 321 318 316 313 311 309 308 310 311 310 310 310 309 310 311 307 303 303 302 302 307 306 306 307 308 308 307 307 307 307 307 307 306 306 306 306 306 306 306 305 303
324 321 318 315 313 311 309 307 307 308 308 309 308 308 308 308 307 305 305 304 304 304 304 304 305 307 307 306 306 306 306 307 307 307 307 307 307 307 307 307 307 306 306
322 320 317 315 313 312 310 307 307 307 308 308 307 307 308 308 307 307 306 305 304 304 304 304 304 304 305 305 305 305 305 307 308 308 307 307 307 307 307 307 307 307 307
322 319 316 315 314 312 310 307 306 306 306 305 305 304 305 306 309 307 306 305 305 305 305 305 305 305 304 305 305 305 305 306 307 308 307 307 307 307 307 307 307 307 306
320 318 316 315 316 315 313 310 309 306 305 304 304 305 306 305 305 309 307 306 305 305 306 306 306 305 305 304 304 304 305 307 307 306 307 307 307 307 307 307 307 307 307
316 316 316 318 318 317 314 313 312 309 306 305 306 307 307 307 306 306 306 307 308 307 306 306 306 306 306 305 305 306 307 307 306 306 306 305 306 306 307 307 307 307 307
318 318 320 319 317 315 314 312 312 311 310 309 310 309 308 307 307 307 306 306 306 306 304 306 306 306 305 305 304 305 307 307 306 305 305 306 306 306 307 306 306 305 306
320 320 318 317 316 314 313 312 312 311 310 310 311 311 309 308 307 307 307 307 306 306 305 306 306 306 305 305 305 305 306 306 306 306 305 306 306 306 307 306 305 304 304
319 318 317 315 314 313 314 313 313 313 312 312 311 312 312 311 308 305 305 305 305 304 305 305 305 305 304 305 305 305 305 305 306 306 306 306 306 306 306 306 306 304 303
319 318 317 316 314 315 315 314 312 311 310 310 310 308 308 309 307 305 304 305 304 305 306 305 304 304 304 304 304 303 304 305 305 305 305 306 306 307 306 306 306 304 304
319 318 317 316 314 312 312 311 308 308 306 306 306 305 305 303 303 303 304 304 305 305 305 304 304 303 303 304 303 303 304 305 305 305 306 306 306 306 307 307 307 306 305
318 318 316 314 312 310 308 307 307 306 305 307 305 304 304 304 304 304 305 305 305 304 304 303 303 303 303 303 303 303 304 305 305 304 305 305 305 305 306 307 307 307 306
317 315 315 314 312 309 308 307 307 306 306 307 306 304 304 304 305 305 305 304 304 304 303 304 304 303 304 303 303 303 304 303 303 303 303 304 304 305 306 306 307 307 307
317 317 315 315 313 311 311 311 311 311 308 307 307 305 304 304 304 304 304 304 303 303 303 303 303 304 304 303 303 303 302 301 301 301 302 303 303 304 304 305 306 306 307
319 318 314 314 313 313 312 311 311 310 310 309 310 308 306 305 305 305 305 305 304 304 303 304 304 304 303 302 303 302 301 300 300 301 302 302 303 303 303 304 305 305 305
317 313 313 312 311 310 310 310 311 310 310 311 310 303 304 305 305 304 304 304 303 303 304 304 303 303 302 302 302 301 300 299 299 300 302 302 302 302 302 303 304 304 304
313 313 312 312 312 312 311 310 311 309 310 307 304 304 304 304 304 303 303 303 303 303 304 304 303 303 302 301 300 299 295 295 298 300 302 301 301 302 301 303 303 304 304
314 313 312 311 310 310 311 309 307 308 308 304 304 304 304 304 304 304 304 304 304 303 303 303 302 301 300 299 295 294 295 297 298 300 301 301 302 301 301 302 302 302 303
315 312 311 310 310 310 308 307 306 307 306 305 304 304 304 305 304 304 304 304 304 303 303 302 301 300 298 295 294 296 297 298 300 301 301 302 300 300 300 301 300 300 302
312 312 311 311 310 308 305 304 304 305 306 305 305 305 305 305 304 304 304 304 304 303 303 302 300 299 297 296 295 296 297 298 299 300 302 300 299 300 300 300 299 300 300
312 311 311 310 307 305 306 306 304 303 304 305 305 304 304 304 304 304 304 304 303 303 302 301 299 298 298 296 294 296 297 298 298 298 298 298 299 299 300 300 299 299 299
Wind_Speed
20 22 23 25 25 25 25 23 23 23 22 21 18 17 17 19 18 18 18 17 17 18 18 19 19 17 16 16 15 11 8 8 7 9 15 14 14 12 11 10 9 9 10
21 24 25 24 22 24 24 21 18 17 15 14 13 14 17 16 16 19 20 19 19 20 19 20 21 21 22 18 18 19 16 10 19 11 15 15 13 12 13 12 12 11 9
21 23 23 23 22 20 18 18 15 15 15 14 14 16 15 16 18 18 18 19 17 15 16 17 18 20 22 21 19 18 18 18 17 14 10 11 14 16 15 15 16 13 7
19 21 21 21 20 19 18 16 16 14 15 16 16 15 14 14 15 16 17 17 16 15 14 13 13 14 16 19 20 19 17 18 16 15 14 15 14 17 17 19 22 20 12
21 20 20 20 19 17 15 15 15 15 17 18 19 18 16 13 13 13 14 16 15 13 15 16 14 10 9 12 14 15 16 17 16 15 14 12 13 15 17 17 17 21 11
19 20 20 18 17 16 15 15 16 17 17 17 19 18 19 17 13 13 14 17 16 15 15 14 13 13 10 10 11 12 13 13 15 14 11 9 12 13 14 17 17 12 7
20 21 20 18 16 15 15 15 16 17 18 19 18 17 16 14 12 12 14 15 17 19 17 15 15 14 12 11 11 12 13 13 13 12 12 11 10 13 14 15 18 16 16
21 20 18 17 16 14 14 15 15 15 14 14 13 13 12 7 5 6 9 11 13 13 13 13 14 14 13 12 12 12 12 14 13 12 11 11 11 14 11 11 14 15 14
19 19 19 17 14 14 13 13 12 11 11 11 8 6 6 8 4 3 4 6 10 9 8 10 10 10 10 11 12 13 11 11 9 7 10 9 11 9 13 13 14 14 8
20 19 18 14 13 12 12 11 9 8 9 8 8 8 8 8 8 4 2 3 2 1 4 7 7 8 9 9 9 10 10 14 14 13 11 11 12 12 13 13 12 11 7
20 19 15 13 11 11 11 9 8 7 7 7 7 6 4 4 5 5 3 3 5 7 9 6 5 9 6 10 8 9 12 11 10 10 12 12 11 14 15 11 12 10 10
19 17 14 12 12 11 10 9 8 7 7 7 5 5 4 3 1 1 2 3 3 3 6 7 5 7 10 9 8 8 8 11 10 12 12 16 16 16 16 13 13 12 7
19 18 15 11 10 10 11 10 9 8 9 9 9 10 9 5 4 3 3 4 4 5 6 4 5 5 5 4 7 8 8 11 10 12 13 13 14 15 13 13 17 14 9
22 19 16 14 12 11 10 7 4 7 10 8 4 4 8 11 5 2 4 6 6 5 1 2 3 4 4 2 3 6 9 11 11 11 12 12 13 13 13 13 12 16 13
20 18 17 15 13 9 9 7 5 3 2 3 1 3 5 7 7 6 5 3 2 1 3 2 3 3 3 7 8 9 8 8 9 10 12 12 15 15 12 12 10 12 13
19 20 18 17 13 10 10 10 7 5 4 3 3 2 4 5 3 1 2 0 1 2 1 2 1 2 4 5 6 7 8 8 7 7 9 10 13 14 13 12 11 11 12
20 21 19 17 14 13 11 12 10 8 5 5 4 3 4 5 4 4 2 3 4 2 0 1 1 3 1 2 5 4 2 5 6 8 8 10 13 13 13 13 12 11 12
22 18 20 19 15 12 13 11 9 8 11 10 8 5 3 3 2 1 2 1 1 1 2 2 3 3 2 1 3 4 3 6 8 8 7 8 12 14 15 15 14 15 17
21 18 19 18 16 12 11 9 9 11 12 9 9 10 8 5 4 2 1 2 3 2 2 2 5 4 1 3 2 2 6 7 8 9 7 10 12 14 16 17 18 19 16
20 18 15 16 15 13 12 11 10 8 9 10 10 9 7 10 10 9 8 6 6 3 4 9 7 4 1 4 4 3 6 8 9 9 8 10 12 14 15 15 15 16 18
20 18 17 14 14 13 12 10 12 12 10 9 7 4 4 4 2 3 3 5 2 1 2 5 6 2 4 4 4 5 9 10 8 9 8 11 12 15 16 13 11 13 14
20 18 16 13 13 12 11 7 9 9 10 11 11 10 8 7 6 5 4 4 3 2 4 4 3 4 4 3 6 9 9 7 7 8 8 11 12 13 16 14 14 11 12
13 14 14 14 11 10 12 12 12 14 15 13 13 12 10 8 10 9 7 6 5 6 7 5 3 4 3 6 8 7 8 6 7 8 9 11 12 13 14 12 13 12 9
18 13 14 13 14 12 14 13 14 17 16 15 14 13 10 9 9 10 8 6 8 6 7 5 4 4 6 7 6 7 6 6 7 8 8 9 9 12 10 9 12 13 7
11 10 11 17 15 16 14 14 14 16 18 16 15 13 12 12 9 9 9 8 9 10 8 6 3 3 5 6 5 5 4 6 7 8 6 5 8 9 8 7 9 11 13
11 10 5 13 16 17 17 16 14 15 18 18 16 14 12 12 12 12 12 11 11 12 11 8 5 4 4 5 4 4 2 3 5 5 6 7 6 8 8 5 7 10 12
Wind_Direction
98 103 104 104 106 107 106 107 106 103 102 101 98 93 91 92 88 82 76 70 72 74 72 70 68 64 62 62 61 65 75 86 101 67 85 74 57 47 43 37 30 25 21
108 107 107 108 108 109 108 107 109 105 104 105 102 99 99 92 88 86 83 75 72 73 73 71 68 65 64 66 68 66 70 82 118 91 64 58 54 39 27 16 3 352 351
119 119 118 115 114 112 109 107 108 108 105 105 107 106 99 97 96 89 81 75 70 70 68 66 66 66 64 63 63 67 73 78 81 85 65 50 42 30 22 27 21 13 34
122 120 121 120 120 115 112 109 105 108 107 105 101 99 96 103 101 91 76 66 67 68 66 65 64 70 69 65 66 64 68 69 67 65 59 49 42 33 31 21 18 18 11
123 122 124 125 120 117 110 107 109 107 107 102 99 94 89 98 103 85 68 65 61 66 68 67 66 72 73 61 61 59 56 57 55 53 46 38 31 24 18 10 10 13 20
133 131 132 133 132 123 113 110 109 111 108 101 96 96 88 87 95 82 81 67 65 67 72 66 63 61 65 68 62 50 41 38 40 38 32 21 15 12 10 9 7 358 340
145 142 145 141 129 121 116 111 115 111 107 99 95 92 90 94 99 96 80 78 74 69 66 59 58 61 62 56 54 54 47 45 37 29 29 20 5 358 352 354 356 350 345
149 152 153 145 139 130 120 120 120 115 109 103 95 88 85 112 132 113 102 94 88 78 66 60 58 54 47 44 47 44 39 35 33 32 27 20 12 8 354 334 341 339 355
156 156 153 152 146 136 123 123 128 126 117 111 105 96 78 63 59 172 155 119 109 97 73 54 45 40 34 30 31 33 28 20 35 33 32 28 21 11 5 356 357 0 351
155 159 159 157 143 141 135 132 132 122 121 124 114 102 85 73 62 47 254 242 262 100 75 18 359 7 15 13 19 16 18 14 18 22 26 24 21 20 12 10 360 346 330
155 158 156 155 155 148 145 149 149 143 144 152 152 137 118 79 77 71 49 318 317 271 304 349 10 7 34 42 37 22 9 7 12 16 23 13 16 19 16 15 7 353 348
158 157 164 161 155 149 150 163 175 184 193 211 214 221 214 200 140 49 7 2 351 333 355 4 8 7 99 67 30 22 29 20 26 23 25 26 19 13 15 23 11 8 358
159 161 159 153 155 159 170 172 185 206 227 242 255 253 248 242 232 262 316 301 318 319 343 15 40 76 114 76 26 8 20 23 21 20 19 12 10 14 16 21 22 20 27
164 164 161 161 166 172 182 192 219 240 243 260 290 279 267 252 247 269 304 298 298 309 305 66 65 42 10 44 22 27 20 25 26 21 19 16 8 9 15 7 7 15 15
173 176 177 178 182 191 196 197 202 171 214 282 259 346 319 299 288 297 302 290 294 348 102 113 19 52 41 42 18 15 357 8 24 26 22 21 14 11 7 5 3 13 16
184 191 188 188 186 175 172 172 187 190 198 175 148 76 35 1 348 354 144 40 15 134 93 342 346 38 27 23 354 358 359 10 15 9 17 16 10 11 10 8 5 357 359
185 191 190 191 183 180 179 184 182 188 187 181 178 134 62 53 83 84 61 95 78 97 128 63 100 342 292 313 316 327 22 4 13 12 8 5 2 7 13 11 6 358 345
191 190 191 194 192 194 191 197 209 208 204 208 208 203 147 99 126 75 27 310 227 72 157 18 330 302 285 38 18 21 24 1 351 346 347 355 1 5 11 11 7 355 350
188 195 205 209 203 209 206 221 233 230 231 231 220 224 216 217 223 218 332 357 2 221 312 292 316 314 205 297 292 10 7 2 352 349 348 356 4 6 8 7 5 5 359
194 202 194 194 204 210 221 230 224 228 232 229 233 239 241 234 247 252 253 282 293 291 310 293 278 178 268 305 282 318 349 346 347 345 343 352 0 4 0 0 4 1 7
180 187 187 187 196 206 217 237 235 242 244 218 218 204 181 205 226 217 248 225 171 327 12 95 136 195 291 297 276 316 328 331 334 339 337 347 354 360 0 359 359 357 1
182 180 185 200 206 213 219 230 222 217 191 188 188 183 187 196 191 190 202 212 234 199 192 197 231 288 305 302 315 321 326 326 332 340 341 344 348 355 1 8 3 2 9
193 195 203 213 227 231 218 209 210 197 193 196 197 198 202 214 214 215 218 206 219 218 211 217 291 341 335 325 327 336 339 341 343 345 343 348 352 356 356 358 360 359 10
198 202 214 221 223 221 205 208 208 202 202 204 206 209 224 217 219 220 221 225 223 224 223 243 294 318 337 339 341 346 354 359 353 343 337 350 357 351 356 7 9 2 333
181 206 242 219 210 211 194 191 199 210 213 213 215 217 213 213 219 218 223 224 224 224 232 234 281 291 337 341 344 350 10 15 11 8 5 15 4 359 358 13 20 26 25
209 215 241 208 212 206 206 216 212 214 215 214 214 213 214 219 227 229 231 229 231 224 226 229 244 258 316 334 340 342 344 355 4 13 16 18 29 28 20 28 43 40 33